Zurück zum Katalog

KUIPER-00170

AktivKommunikationLEO
NORAD 65783·PAYLOAD·🇺🇸 United States

Gestartet Sep 25, 2025 von Cape Canaveral Space Force Station

Loading…

Nächste Überflüge (nächste 24 Stunden)

TLE

AktuellSource: CelesTrak SupGP

Epoche: Sep 14, 2026, 21:13 UTC

1 65783C 25217X   26257.88467593  .00001818  00000+0  23810-3 0  2579
2 65783  51.8977 281.4483 0000529  73.0359 346.6888 14.79914050    15

Verfolge KUIPER-00170 in Echtzeit mit AllMySat

Download on the App Store